Stations météo

réclame
Mon MeteoGroup
Fyvie castle, Grande-Bretagne (99010): Température de l'air & dewpoint: 18.05.2019 16:00:00 - 24.05.2019 16:00:00 (BST)Fyvie castle, Grande-Bretagne (99010): Quantités de précipitations: 18.05.2019 16:00:00 - 24.05.2019 16:00:00 (BST)
Date & Time tt [°C] td [°C] rr [mm]
24.05.2019 16:00:00 14,0 5,6 0,0
24.05.2019 15:00:00 14,9 6,4 0,0
24.05.2019 14:00:00 13,6 5,7 0,0
24.05.2019 13:00:00 13,3 5,8 0,0
24.05.2019 12:00:00 12,1 4,8 0,0
24.05.2019 11:00:00 11,7 4,8 0,0
24.05.2019 10:00:00 11,4 5,2 0,0
24.05.2019 09:00:00 10,0 4,2 0,0
24.05.2019 08:00:00 9,5 4,4 0,0
24.05.2019 07:00:00 8,9 4,8 0,0
24.05.2019 06:00:00 8,8 5,5 0,0
24.05.2019 05:00:00 8,9 6,0 0,0
24.05.2019 04:00:00 8,9 6,1 0,0
24.05.2019 03:00:00 8,7 6,6 0,0
24.05.2019 02:00:00 8,7 6,7 0,0
24.05.2019 01:00:00 9,2 6,3 0,0
24.05.2019 00:00:00 9,5 6,3 0,0
23.05.2019 23:00:00 9,5 6,6 0,0
23.05.2019 22:00:00 9,6 6,8 0,0
23.05.2019 21:00:00 9,9 6,7 0,0
23.05.2019 20:00:00 10,5 6,3 0,0
23.05.2019 19:00:00 10,8 6,0 0,0
23.05.2019 18:00:00 11,0 6,5 0,0
23.05.2019 17:00:00 11,3 6,8 0,0
23.05.2019 16:00:00 11,6 7,3 0,0
23.05.2019 15:00:00 12,1 7,0 0,0
23.05.2019 14:00:00 12,5 7,3 0,0
23.05.2019 13:00:00 12,7 8,0 0,0
23.05.2019 12:00:00 11,7 7,8 0,0
23.05.2019 11:00:00 10,0 8,0 0,0
23.05.2019 10:00:00 10,1 8,1 0,0
23.05.2019 09:00:00 10,5 8,6 0,2
23.05.2019 08:00:00 10,4 8,0 0,0
23.05.2019 07:00:00 9,6 7,6 0,0
23.05.2019 06:00:00 9,3 7,4 0,0
23.05.2019 05:00:00 9,3 7,3 0,0
23.05.2019 04:00:00 9,2 7,5 0,0
23.05.2019 03:00:00 9,1 7,9 0,2
23.05.2019 02:00:00 8,8 7,9 0,4
23.05.2019 01:00:00 9,0 7,7 0,0
23.05.2019 00:00:00 9,3 7,9 0,2
22.05.2019 23:00:00 9,6 7,9 0,0
22.05.2019 22:00:00 10,0 7,5 0,0
22.05.2019 21:00:00 10,2 7,3 0,0
22.05.2019 20:00:00 10,3 7,8 0,0
22.05.2019 19:00:00 10,7 8,2 0,0
22.05.2019 18:00:00 10,2 8,9 0,0
22.05.2019 17:00:00 10,4 8,9 0,2
22.05.2019 16:00:00 10,9 9,5 0,4
22.05.2019 15:00:00 11,3 9,8 0,2
22.05.2019 14:00:00 11,7 9,3 0,0
22.05.2019 13:00:00 11,4 8,7 0,0
22.05.2019 12:00:00 10,0 9,2 0,2
22.05.2019 11:00:00 9,3 8,6 0,8
22.05.2019 10:00:00 8,9 8,0 0,2
22.05.2019 09:00:00 8,0 7,1 1,6
22.05.2019 08:00:00 9,2 6,9 0,0
22.05.2019 07:00:00 8,3 5,8 0,0
22.05.2019 06:00:00 7,9 5,3 0,0
22.05.2019 05:00:00 6,1 5,1 0,0
22.05.2019 04:00:00 5,4 4,0 0,0
22.05.2019 03:00:00 4,9 4,2 0,2
22.05.2019 02:00:00 4,7 3,9 0,0
22.05.2019 01:00:00 6,2 4,8 0,0
22.05.2019 00:00:00 7,2 6,1 0,0
21.05.2019 23:00:00 7,9 6,8 0,0
21.05.2019 22:00:00 9,0 7,4 0,6
21.05.2019 21:00:00 10,5 7,1 0,0
21.05.2019 20:00:00 11,6 6,9 0,0
21.05.2019 19:00:00 12,4 6,6 0,0
21.05.2019 18:00:00 13,0 6,7 0,0
21.05.2019 17:00:00 12,4 7,5 0,0
21.05.2019 16:00:00 12,8 6,7 0,0
21.05.2019 15:00:00 13,1 7,4 0,0
21.05.2019 14:00:00 12,7 8,2 0,0
21.05.2019 13:00:00 12,2 7,8 0,0
21.05.2019 12:00:00 11,1 8,6 0,0
21.05.2019 11:00:00 11,0 8,8 0,0
21.05.2019 10:00:00 10,0 9,0 0,4
21.05.2019 09:00:00 9,2 8,7 1,6
21.05.2019 08:00:00 8,8 8,2 0,4
21.05.2019 07:00:00 8,9 8,4 0,0
21.05.2019 06:00:00 8,6 8,2 0,2
21.05.2019 05:00:00 8,8 8,4 1,2
21.05.2019 04:00:00 9,4 8,9 0,2
21.05.2019 03:00:00 9,5 9,2 0,0
21.05.2019 02:00:00 9,4 9,0 0,0
21.05.2019 01:00:00 9,4 8,8 0,0
21.05.2019 00:00:00 9,5 8,8 0,0
20.05.2019 23:00:00 9,9 8,8 0,0
20.05.2019 22:00:00 10,5 9,3 0,0
20.05.2019 21:00:00 11,0 9,4 0,0
20.05.2019 20:00:00 11,8 9,7 0,0
20.05.2019 19:00:00 12,9 10,1 0,0
20.05.2019 18:00:00 13,6 10,4 0,0
20.05.2019 17:00:00 13,9 10,4 0,0
20.05.2019 16:00:00 14,3 10,3 0,0
20.05.2019 15:00:00 13,2 10,4 0,0
20.05.2019 14:00:00 14,6 10,6 0,0
20.05.2019 13:00:00 14,0 10,7 0,0
20.05.2019 12:00:00 12,8 10,3 0,0
20.05.2019 11:00:00 11,7 10,8 0,0
20.05.2019 10:00:00 11,3 10,8 0,4
20.05.2019 09:00:00 11,3 11,1 0,0
20.05.2019 08:00:00 10,6 10,5 0,0
20.05.2019 07:00:00 10,0 9,8 0,0
20.05.2019 06:00:00 9,7 9,5 0,0
20.05.2019 05:00:00 9,5 9,1 0,0
20.05.2019 04:00:00 9,6 9,2 1,2
20.05.2019 03:00:00 9,5 9,2 0,0
20.05.2019 02:00:00 9,4 9,0 0,0
20.05.2019 01:00:00 9,4 9,0 0,0
20.05.2019 00:00:00 9,3 8,8 0,0
19.05.2019 23:00:00 10,0 9,0 0,0
19.05.2019 22:00:00 11,3 9,3 0,0
19.05.2019 21:00:00 13,6 10,3 0,0
19.05.2019 20:00:00 14,2 10,6 0,0
19.05.2019 19:00:00 14,7 10,2 0,0
19.05.2019 18:00:00 15,4 10,2 0,0
19.05.2019 17:00:00 15,3 10,7 0,0
19.05.2019 16:00:00 15,8 11,1 0,0
19.05.2019 15:00:00 14,6 10,5 0,0
19.05.2019 14:00:00 17,0 10,9 0,0
19.05.2019 13:00:00 15,3 10,9 0,0
19.05.2019 12:00:00 12,8 9,5 0,0
19.05.2019 11:00:00 12,7 9,7 0,0
19.05.2019 10:00:00 12,1 10,2 0,0
19.05.2019 09:00:00 10,5 10,2 0,2
19.05.2019 08:00:00 10,0 9,8 0,0
19.05.2019 07:00:00 9,6 9,5 0,0
19.05.2019 06:00:00 9,4 9,2 0,0
19.05.2019 05:00:00 9,4 9,2 0,0
19.05.2019 04:00:00 9,4 9,2 0,0
19.05.2019 03:00:00 9,5 9,2 0,0
19.05.2019 02:00:00 9,6 9,2 0,2
19.05.2019 01:00:00 9,7 9,3 0,0
19.05.2019 00:00:00 9,8 9,2 0,0
18.05.2019 23:00:00 9,8 9,1 0,0
18.05.2019 22:00:00 10,0 9,4 0,0
18.05.2019 21:00:00 10,0 9,3 0,0
18.05.2019 20:00:00 10,1 9,2 0,0
18.05.2019 19:00:00 11,0 10,0 0,0
18.05.2019 18:00:00 10,9 9,9 0,0
18.05.2019 17:00:00 10,8 9,8 0,0
18.05.2019 16:00:00 10,7 9,6 0,0

tt = Température de l'air
td = dewpoint
rr = Quantités de précipitations

stations d'obs. à proximité